Plattsmouth, NE

7:23 PM CDT on April 19, 2018 (GMT -0500)
Plattsmouth Municipal

Weather History for KPMV - February, 2014

Change the Weather History Date:

Tuesday, February 11, 2014

  Actual Average (KOFF) Record (KOFF)
Temperature  
Mean Temperature 10 °F -  
Max Temperature 19 °F 36 °F 55 °F (1999)
Min Temperature 2 °F 19 °F -4 °F (2014)
Degree Days  
Heating Degree Days 54    
Moisture  
Dew Point 1 °F    
Average Humidity 64    
Maximum Humidity 74    
Minimum Humidity 53    
Precipitation  
Precipitation 0.00 in - - ()
Sea Level Pressure  
Sea Level Pressure 30.30 in    
Wind  
Wind Speed 8 mph (SSE)    
Max Wind Speed 18 mph    
Max Gust Speed 24 mph    
Visibility 10 miles    
Events      
Averages and records for this station are not official NWS values.
T = Trace of Precipitation, MM = Missing Value Source: NWS Daily Summary

Daily Weather History Graph

Daily Weather History Graph

Search for Another Location

Airport or City:

Astronomy

Feb. 11, 2014 Rise Set
Actual Time 7:23 AM CST 5:53 PM CST
Civil Twilight 6:54 AM CST 6:21 PM CST
Nautical Twilight 6:22 AM CST 6:54 PM CST
Astronomical Twilight 5:50 AM CST 7:26 PM CST
Moon 3:14 PM CST (2/11) 5:01 AM CST (2/11)
Length of Visible Light 11h 27m
Length of Day
10h 30m
Waxing Gibbous, 91% of the Moon is Illuminated
Feb 11
Waxing Gibbous
Feb 14
Full
Feb 22
Last Quarter
Mar 1
New
Mar 8
First Quarter

Hourly Weather History & Observations

Time (CST) Temp. Windchill Dew Point Humidity Pressure Visibility Wind Dir Wind Speed Gust Speed Precip Events Conditions
12:15 AM 3.0 °F -4.4 °F -5.4 °F 68% 30.45 in 10.0 mi ESE 3.5 mph - N/A   Scattered Clouds
12:35 AM 2.1 °F -5.4 °F -5.8 °F 69% 30.44 in 10.0 mi ESE 3.5 mph - N/A   Clear
12:55 AM 2.5 °F -5.0 °F -4.0 °F 74% 30.45 in 10.0 mi East 3.5 mph - N/A   Clear
1:15 AM 2.8 °F -4.6 °F -4.0 °F 73% 30.43 in 10.0 mi ESE 3.5 mph - N/A   Clear
1:35 AM 2.5 °F -7.0 °F -4.0 °F 74% 30.43 in 10.0 mi SE 4.6 mph - N/A   Clear
1:55 AM 2.3 °F -7.2 °F -4.2 °F 74% 30.43 in 10.0 mi SSE 4.6 mph - N/A   Clear
2:15 AM 2.7 °F -6.8 °F -4.9 °F 71% 30.43 in 10.0 mi SSE 4.6 mph - N/A   Clear
2:35 AM 3.6 °F -7.3 °F -4.4 °F 70% 30.42 in 10.0 mi SSE 5.8 mph - N/A   Scattered Clouds
2:55 AM 3.6 °F -5.7 °F -4.5 °F 69% 30.43 in 10.0 mi SSE 4.6 mph - N/A   Mostly Cloudy
3:15 AM 3.2 °F -4.2 °F -4.4 °F 71% 30.42 in 10.0 mi SSE 3.5 mph - N/A   Mostly Cloudy
3:35 AM 2.5 °F -10.0 °F -4.7 °F 72% 30.41 in 10.0 mi SSE 6.9 mph - N/A   Mostly Cloudy
3:55 AM 3.2 °F -6.2 °F -4.2 °F 71% 30.42 in 10.0 mi SSE 4.6 mph - N/A   Overcast
4:15 AM 3.7 °F -8.4 °F -4.4 °F 69% 30.42 in 10.0 mi SSE 6.9 mph - N/A   Overcast
4:35 AM 3.9 °F -6.9 °F -4.0 °F 70% 30.42 in 10.0 mi SSE 5.8 mph - N/A   Overcast
4:55 AM 4.1 °F -8.0 °F -3.5 °F 71% 30.43 in 10.0 mi South 6.9 mph - N/A   Overcast
5:15 AM 4.6 °F -7.4 °F -3.5 °F 69% 30.43 in 10.0 mi SSE 6.9 mph - N/A   Overcast
5:35 AM 5.0 °F -8.1 °F -3.5 °F 68% 30.43 in 10.0 mi SSE 8.1 mph - N/A   Overcast
5:55 AM 5.0 °F -6.9 °F -3.8 °F 67% 30.43 in 10.0 mi SSE 6.9 mph - N/A   Overcast
6:15 AM 5.0 °F -6.9 °F -3.6 °F 68% 30.42 in 10.0 mi SSE 6.9 mph - N/A   Overcast
6:35 AM 4.8 °F -7.1 °F -3.5 °F 69% 30.42 in 10.0 mi SSE 6.9 mph - N/A   Overcast
6:55 AM 4.8 °F -7.1 °F -3.5 °F 69% 30.41 in 10.0 mi SE 6.9 mph - N/A   Overcast
7:15 AM 4.5 °F -6.3 °F -3.1 °F 71% 30.42 in 10.0 mi SSE 5.8 mph - N/A   Overcast
7:35 AM 4.5 °F -7.6 °F -2.7 °F 72% 30.41 in 10.0 mi SSE 6.9 mph - N/A   Overcast
7:55 AM 5.0 °F -6.9 °F -2.2 °F 72% 30.41 in 10.0 mi SSE 6.9 mph - N/A   Overcast
8:15 AM 5.4 °F -6.5 °F -2.2 °F 71% 30.41 in 10.0 mi SSE 6.9 mph - N/A   Overcast
8:35 AM 5.9 °F -5.8 °F -1.8 °F 70% 30.41 in 10.0 mi SSE 6.9 mph - N/A   Overcast
8:55 AM 6.6 °F -6.1 °F -1.5 °F 69% 30.40 in 10.0 mi SE 8.1 mph - N/A   Overcast
9:15 AM 7.5 °F -6.0 °F -1.3 °F 67% 30.40 in 10.0 mi SSE 9.2 mph - N/A   Overcast
9:35 AM 8.4 °F -4.9 °F -0.8 °F 66% 30.39 in 10.0 mi SSE 9.2 mph - N/A   Overcast
9:55 AM 9.5 °F -4.4 °F -0.4 °F 64% 30.38 in 10.0 mi SSE 10.4 mph - N/A   Overcast
10:15 AM 10.2 °F -2.7 °F -0.0 °F 63% 30.38 in 10.0 mi SSE 9.2 mph - N/A   Overcast
10:35 AM 10.9 °F -3.4 °F -0.2 °F 61% 30.37 in 10.0 mi SSE 11.5 mph - N/A   Overcast
10:55 AM 11.3 °F -2.2 °F 0.3 °F 61% 30.37 in 10.0 mi SSE 10.4 mph - N/A   Overcast
11:15 AM 12.0 °F -2.0 °F 0.5 °F 60% 30.37 in 10.0 mi SSE 11.5 mph - N/A   Overcast
11:35 AM 13.1 °F -0.7 °F 1.2 °F 59% 30.36 in 10.0 mi SSE 11.5 mph - N/A   Overcast
11:55 AM 13.6 °F -1.3 °F 1.9 °F 60% 30.35 in 10.0 mi SSE 13.8 mph - N/A   Overcast
12:15 PM 14.2 °F 0.7 °F 1.9 °F 58% 30.34 in 10.0 mi SSE 11.5 mph - N/A   Overcast
12:35 PM 14.9 °F 0.9 °F 2.3 °F 57% 30.33 in 10.0 mi SSE 12.7 mph - N/A   Overcast
12:55 PM 15.8 °F 1.4 °F 2.5 °F 56% 30.31 in 10.0 mi SSE 13.8 mph 17.3 mph N/A   Overcast
1:15 PM 16.7 °F 2.0 °F 2.5 °F 54% 30.29 in 10.0 mi SSE 15.0 mph 18.4 mph N/A   Overcast
1:35 PM 16.7 °F 2.0 °F 2.7 °F 54% 30.28 in 10.0 mi South 15.0 mph - N/A   Overcast
1:55 PM 17.4 °F 2.9 °F 2.8 °F 53% 30.25 in 10.0 mi SE 15.0 mph - N/A   Overcast
2:15 PM 17.6 °F 3.7 °F 3.4 °F 54% 30.24 in 10.0 mi SSE 13.8 mph - N/A   Overcast
2:35 PM 17.6 °F 3.7 °F 3.7 °F 55% 30.23 in 10.0 mi SSE 13.8 mph - N/A   Overcast
2:55 PM 17.6 °F 6.4 °F 4.3 °F 56% 30.22 in 10.0 mi SSE 9.2 mph - N/A   Overcast
3:15 PM 18.0 °F 6.1 °F 4.8 °F 57% 30.21 in 10.0 mi SSE 10.4 mph 17.3 mph N/A   Overcast
3:35 PM 18.0 °F 7.7 °F 4.8 °F 57% 30.21 in 10.0 mi SSE 8.1 mph - N/A   Overcast
3:55 PM 18.3 °F 5.9 °F 5.4 °F 57% 30.20 in 10.0 mi SSE 11.5 mph - N/A   Overcast
4:15 PM 19.0 °F 6.1 °F 6.4 °F 58% 30.19 in 10.0 mi SSE 12.7 mph - N/A   Overcast
4:35 PM 19.2 °F 5.8 °F 6.1 °F 57% 30.18 in 10.0 mi South 13.8 mph 23.0 mph N/A   Overcast
4:55 PM 19.0 °F 6.1 °F 6.3 °F 58% 30.18 in 10.0 mi SSE 12.7 mph - N/A   Overcast
5:15 PM 18.9 °F 5.3 °F 6.8 °F 59% 30.18 in 10.0 mi SSE 13.8 mph - N/A   Overcast
5:35 PM 18.5 °F 4.9 °F 6.4 °F 59% 30.17 in 10.0 mi SSE 13.8 mph 21.9 mph N/A   Overcast
5:55 PM 18.5 °F 4.3 °F 6.3 °F 59% 30.16 in 10.0 mi SSE 15.0 mph 20.7 mph N/A   Overcast
6:15 PM 18.0 °F 3.1 °F 5.9 °F 59% 30.15 in 10.0 mi SSE 16.1 mph - N/A   Overcast
6:35 PM 17.6 °F 3.7 °F 5.7 °F 60% 30.16 in 10.0 mi SSE 13.8 mph - N/A   Overcast
6:55 PM 17.1 °F 5.0 °F 5.7 °F 61% 30.16 in 10.0 mi SSE 10.4 mph - N/A   Scattered Clouds
7:15 PM 16.3 °F 4.1 °F 5.5 °F 63% 30.16 in 10.0 mi SSE 10.4 mph - N/A   Clear
7:35 PM 16.2 °F 2.5 °F 5.4 °F 62% 30.15 in 10.0 mi SSE 12.7 mph - N/A   Clear
7:55 PM 15.8 °F 2.7 °F 5.2 °F 63% 30.14 in 10.0 mi SSE 11.5 mph - N/A   Clear
8:15 PM 15.8 °F 1.4 °F 4.8 °F 62% 30.14 in 10.0 mi SSE 13.8 mph - N/A   Clear
8:35 PM 15.8 °F 1.4 °F 4.8 °F 62% 30.13 in 10.0 mi SSE 13.8 mph - N/A   Clear
8:55 PM 15.6 °F 0.6 °F 4.6 °F 62% 30.13 in 10.0 mi SSE 15.0 mph 19.6 mph N/A   Clear
9:15 PM 15.6 °F 0.1 °F 4.6 °F 62% 30.13 in 10.0 mi SSE 16.1 mph - N/A   Clear
9:35 PM 16.2 °F 1.3 °F 4.5 °F 60% 30.12 in 10.0 mi SSE 15.0 mph 20.7 mph N/A   Clear
9:55 PM 16.3 °F 1.6 °F 4.5 °F 60% 30.14 in 10.0 mi SSE 15.0 mph 20.7 mph N/A   Clear
10:15 PM 16.0 °F 2.3 °F 4.8 °F 61% 30.15 in 10.0 mi South 12.7 mph - N/A   Clear
10:35 PM 16.7 °F 1.5 °F 4.6 °F 59% 30.13 in 10.0 mi SSE 16.1 mph 20.7 mph N/A   Clear
10:55 PM 16.5 °F 1.3 °F 4.6 °F 60% 30.12 in 10.0 mi South 16.1 mph - N/A   Clear
11:15 PM 16.7 °F 0.5 °F 4.8 °F 60% 30.11 in 10.0 mi SSE 18.4 mph - N/A   Scattered Clouds
11:35 PM 17.2 °F 1.7 °F 5.0 °F 59% 30.10 in 10.0 mi SSE 17.3 mph 24.2 mph N/A   Mostly Cloudy
11:55 PM 17.6 °F 3.7 °F 5.0 °F 58% 30.09 in 10.0 mi South 13.8 mph 21.9 mph N/A   Mostly Cloudy